"Pseudo-MPEC" for P10NHo8

Created 2019 May 21 3:07:19 UT using Find_Orb

Click here for an explanation of pseudo-MPECs

 
 Astrometry: 
     P10NHo8  C2019 05 08gg.=bM8,VeCx9y#lCHwfyc8N1+5x)#,?38KiWnhJGDM9AOk-O.FWF51
     P10NHo8  C2019 05 08?=\7;?:@Y5X_YjS!:!AstrometryyhnA=9NlGt$AvAW4\v(8NO!-F51
     P10NHo8  C2019 05 08?.bYcaGX(?KWes+i:(0qpGmR_0ng_oNX$67Ax9yXKredacted;7wF51
     P10NHo8  C2019 05 10xCg8%QcOx0'8tv%YETk#D)EBvx#.#:+!]rmbJ07Asn;ItOH(tLL#F51
     P10NHo8  C2019 05 10KIy#La'@m\$?*@Cn2Fclicki+:_ThhJb(Qf-?1'lFt($heremfE7F51
     P10NHo8  C2019 05 10[1]JQ/JtwD`cOpOy[/'0T04Hv3_1Dv\:'EdUwE].)=X3nBwuRQ+gF51
     P10NHo8 ^C2019 05 15S\TlmyB)9JOX%L#YcecwPBkr?g%KLFX.KVyG_mK4KQ:Nd#m')jW\695
     P10NHo8 ^C2019 05 15*yI/$O/]8/bnccSV5forB'@\/*:fwlwWN'WQj5'Sr?c4gxt\3=SS695
     P10NHo8 ^C2019 05 15L7G(WDtexplanationU#63T[H54u.Q/uWaJmt@0's6stP?m_upv.695

Station data:
(695) Kitt Peak  (N31.958398 W111.594670)  US/Arizona.
(F51) Pan-STARRS 1, Haleakala  (N20.707235 W156.255910)  US/Hawaii.
   Observers N. Primak, A. Schultz, S. Watters, J. Thiel, T. Goggia. Measurer
   PS1 Science Consortium. 1.8-m Ritchey-Chrétien + CCD.

Orbital elements:  P10NHo8
   Perihelion 2018 Aug 29.600108 +/- 2.72 TT = 14:24:09 (JD 2458360.100108)
Epoch 2019 May 15.0 TT = JDT 2458618.5   Earth MOID: 0.7017   Ma: 0.0776
M  99.38231695 +/- 0.9              (J2000 ecliptic)          AutoNEOCP
n   0.38460665 +/- 0.000671         Peri.   19.38952 +/- 0.44
a   1.87265678 +/- 0.00218          Node   102.36464 +/- 0.17
e   0.1038702 +/- 0.00271           Incl.   27.98522 +/- 0.11
P   2.56/936.00d           H 19.6   G  0.15   U  7.9  
q 1.67814354 +/- 0.0062    Q 2.06717002 +/- 0.00456
From 9 observations 2019 May 8-15; mean residual 0".09
Residuals in arcseconds: 
190508 F51  .02+  .03-    190510 F51  .17-  .05+    190515 695  .07-  .16-    
190508 F51  .02-  .02+    190510 F51  .12+  .08+    190515 695  .05-  .07+    
190508 F51  .00   .01+    190510 F51  .04+  .12-    190515 695  .12+  .09+    

Ephemerides (geocentric):
Date (UTC) HH   RA              Dec         delta   r     elong  mag " sig PA
---- -- -- --  -------------   -----------  ------ ------ -----  --- ---- ---
2019 05 21 03  16 14 10.529   +19 28 16.05  1.0427 1.9309 140.0 22.1 2.35 154
2019 05 21 04  16 14 06.809   +19 27 50.76  1.0427 1.9309 140.0 22.1 2.37 154
2019 05 21 05  16 14 03.090   +19 27 25.41  1.0427 1.9310 140.0 22.1 2.40 154
2019 05 21 06  16 13 59.370   +19 27 00.01  1.0427 1.9310 140.0 22.1 2.42 154
2019 05 21 07  16 13 55.650   +19 26 34.54  1.0427 1.9311 140.0 22.1 2.44 154
2019 05 21 08  16 13 51.929   +19 26 09.02  1.0427 1.9311 140.0 22.1 2.47 154
2019 05 21 09  16 13 48.208   +19 25 43.44  1.0427 1.9312 140.1 22.1 2.49 154
2019 05 21 10  16 13 44.487   +19 25 17.80  1.0427 1.9312 140.1 22.1 2.52 154
2019 05 21 11  16 13 40.766   +19 24 52.11  1.0427 1.9313 140.1 22.1 2.54 154
2019 05 21 12  16 13 37.045   +19 24 26.35  1.0427 1.9313 140.1 22.1 2.57 154
2019 05 21 13  16 13 33.323   +19 24 00.54  1.0427 1.9314 140.1 22.1 2.60 154
2019 05 21 14  16 13 29.601   +19 23 34.67  1.0427 1.9314 140.1 22.1 2.62 154
2019 05 21 15  16 13 25.879   +19 23 08.74  1.0427 1.9315 140.1 22.1 2.65 154
2019 05 21 16  16 13 22.157   +19 22 42.75  1.0427 1.9315 140.1 22.1 2.67 153
2019 05 21 17  16 13 18.434   +19 22 16.71  1.0427 1.9316 140.1 22.1 2.70 153
2019 05 21 18  16 13 14.711   +19 21 50.61  1.0427 1.9316 140.1 22.1 2.72 153
2019 05 21 19  16 13 10.988   +19 21 24.44  1.0427 1.9317 140.1 22.1 2.75 153
2019 05 21 20  16 13 07.265   +19 20 58.22  1.0427 1.9317 140.1 22.1 2.78 153
2019 05 21 21  16 13 03.542   +19 20 31.95  1.0427 1.9318 140.1 22.1 2.80 153
2019 05 21 22  16 12 59.819   +19 20 05.61  1.0428 1.9318 140.1 22.1 2.83 153
2019 05 21 23  16 12 56.095   +19 19 39.22  1.0428 1.9319 140.1 22.1 2.86 153
2019 05 22 00  16 12 52.372   +19 19 12.77  1.0428 1.9319 140.1 22.1 2.88 153
2019 05 22 01  16 12 48.648   +19 18 46.26  1.0428 1.9320 140.2 22.1 2.91 153
2019 05 22 02  16 12 44.924   +19 18 19.69  1.0428 1.9320 140.2 22.1 2.94 153
2019 05 22 03  16 12 41.200   +19 17 53.06  1.0428 1.9321 140.2 22.1 2.96 153
2019 05 22 04  16 12 37.476   +19 17 26.38  1.0428 1.9321 140.2 22.1 2.99 153
2019 05 22 05  16 12 33.752   +19 16 59.64  1.0428 1.9322 140.2 22.1 3.02 153
2019 05 22 06  16 12 30.027   +19 16 32.84  1.0428 1.9322 140.2 22.1 3.05 153
2019 05 22 07  16 12 26.303   +19 16 05.98  1.0428 1.9323 140.2 22.1 3.07 153
2019 05 22 08  16 12 22.578   +19 15 39.07  1.0428 1.9323 140.2 22.1 3.10 153
2019 05 22 09  16 12 18.854   +19 15 12.09  1.0428 1.9324 140.2 22.1 3.13 152
2019 05 22 10  16 12 15.129   +19 14 45.06  1.0429 1.9324 140.2 22.1 3.16 152
2019 05 22 11  16 12 11.405   +19 14 17.97  1.0429 1.9325 140.2 22.1 3.18 152
2019 05 22 12  16 12 07.680   +19 13 50.83  1.0429 1.9325 140.2 22.1 3.21 152
2019 05 22 13  16 12 03.956   +19 13 23.62  1.0429 1.9326 140.2 22.1 3.24 152
2019 05 22 14  16 12 00.231   +19 12 56.36  1.0429 1.9326 140.2 22.1 3.27 152
2019 05 22 15  16 11 56.506   +19 12 29.04  1.0429 1.9327 140.2 22.1 3.30 152
2019 05 22 16  16 11 52.782   +19 12 01.66  1.0429 1.9327 140.2 22.1 3.33 152
2019 05 22 17  16 11 49.057   +19 11 34.23  1.0429 1.9328 140.2 22.1 3.35 152
2019 05 22 18  16 11 45.332   +19 11 06.73  1.0429 1.9328 140.2 22.1 3.38 152
2019 05 22 19  16 11 41.608   +19 10 39.18  1.0430 1.9329 140.3 22.1 3.41 152
2019 05 22 20  16 11 37.883   +19 10 11.57  1.0430 1.9329 140.3 22.1 3.44 152
2019 05 22 21  16 11 34.159   +19 09 43.91  1.0430 1.9330 140.3 22.1 3.47 152
2019 05 22 22  16 11 30.434   +19 09 16.18  1.0430 1.9330 140.3 22.1 3.50 152
2019 05 22 23  16 11 26.710   +19 08 48.40  1.0430 1.9331 140.3 22.1 3.53 152
2019 05 23 00  16 11 22.985   +19 08 20.56  1.0430 1.9331 140.3 22.1 3.56 152
2019 05 23 01  16 11 19.261   +19 07 52.66  1.0430 1.9332 140.3 22.1 3.59 152
2019 05 23 02  16 11 15.537   +19 07 24.71  1.0431 1.9332 140.3 22.1 3.62 152